Location: Fenn
(52.1430°N, 112.7440°W)
Time: 09:29:16
(UTC+00:00)

BlueWalker 3 - Visible Passes

Search period start: 08 June 2023 00:00
Search period end: 18 June 2023 00:00
Orbit: 494 x 513 km, 53.2° (Epoch: 07 June)

Date Brightness Start Highest point End Pass type
(mag) Time Alt. Az. Time Alt. Az. Time Alt. Az.
08 Jun 1.9 05:34:08 10° WNW 05:38:00 74° SSW 05:41:43 11° ESE visible
08 Jun 3.2 07:13:00 10° W 07:16:07 23° SW 07:16:22 23° SSW visible
09 Jun 1.9 05:13:42 10° WNW 05:17:33 73° SSW 05:21:25 10° ESE visible
09 Jun 3.3 06:52:35 10° W 06:55:40 23° SW 06:56:12 22° SSW visible
10 Jun 1.9 04:53:15 10° WNW 04:57:06 72° SSW 05:00:57 10° ESE visible
10 Jun 3.3 06:32:08 10° W 06:35:11 22° SW 06:36:04 21° SSW visible
11 Jun 2.0 04:32:47 10° WNW 04:36:37 71° SSW 04:40:28 10° ESE visible
11 Jun 3.4 06:11:42 10° W 06:14:43 22° SW 06:16:00 18° SSW visible
12 Jun 3.5 05:51:15 10° W 05:54:13 21° SW 05:55:59 16° S visible
13 Jun 3.6 05:30:46 10° W 05:33:43 21° SW 05:36:00 13° S visible
14 Jun 3.7 05:10:17 10° W 05:13:12 21° SW 05:16:02 10° S visible
15 Jun 3.7 04:49:48 10° W 04:52:41 20° SW 04:55:33 10° S visible
